Theta_e
321 321 322 322 322 321 321 321 321 322 321 321 321 321 322 322 322 323 323 323 323 323 322 322 322 321 321 320 319 318 318 314 315 312 306 307 319 347 352 353 353 349 354 316 314 313 313 317 315 319 322 322 321 319 321 325 317 311 305 295 297 298 299 303 306 305 313 316 318 322 324 323 320 326 329 332 328 329 332 332 337 341 341 345 347 348 347 346
321 321 322 321 321 320 321 321 321 321 321 321 321 321 321 322 322 322 322 322 322 322 322 322 321 321 320 319 318 319 317 316 313 311 310 318 347 355 355 353 354 357 338 315 314 311 313 314 315 321 320 316 320 317 314 312 318 305 300 295 296 297 303 302 307 312 318 317 320 322 324 324 323 326 327 324 324 326 329 332 336 337 342 346 347 346 346 346
321 321 321 321 320 320 321 321 321 321 321 321 321 321 321 321 322 322 322 322 322 322 321 321 321 320 319 319 318 319 317 315 311 301 307 336 341 351 355 356 356 358 317 317 319 316 313 314 317 322 318 316 310 311 308 308 317 309 303 297 301 302 305 311 317 317 321 321 320 321 323 325 325 324 328 324 322 326 327 329 332 335 337 341 344 346 346 348
320 320 321 320 320 320 321 321 321 321 321 321 320 320 321 321 321 321 321 321 321 321 321 320 320 320 319 318 319 317 316 314 301 303 308 340 352 347 353 357 357 343 320 321 321 321 322 323 321 322 315 310 310 307 305 307 306 305 299 297 301 302 312 312 317 320 320 323 321 322 321 322 322 325 327 324 321 321 323 331 333 334 338 341 344 345 346 347
320 320 320 320 320 320 321 321 321 321 320 320 320 320 320 320 321 321 321 321 321 321 320 320 320 319 318 319 318 317 317 296 300 301 307 353 360 356 351 357 355 323 320 321 321 324 323 322 319 314 312 311 307 302 306 307 308 305 305 300 300 302 312 314 318 320 321 322 321 321 320 319 327 328 325 323 317 316 323 327 337 339 341 342 343 344 346 347
320 319 319 319 320 320 320 320 321 321 320 320 320 320 320 320 320 320 320 320 320 320 320 320 319 318 319 319 318 313 302 292 307 312 366 358 356 358 351 355 350 321 322 322 318 322 322 320 315 314 310 307 305 300 303 305 306 300 301 300 303 312 315 315 321 322 323 321 321 319 323 328 326 325 328 323 321 323 331 336 339 341 343 344 346 345 345 346
319 319 319 319 320 319 320 320 320 320 320 320 320 320 320 320 319 319 319 319 319 319 320 320 319 318 319 320 313 308 299 301 307 311 358 360 356 354 353 358 346 317 314 318 322 322 319 315 314 315 307 302 303 302 304 302 300 297 301 302 307 312 317 318 322 324 322 323 322 325 331 328 327 323 329 324 326 329 337 340 340 341 343 345 344 345 346 346
318 319 319 319 319 320 320 320 320 319 320 319 320 320 320 320 319 319 319 319 318 319 320 320 319 317 319 316 313 299 297 301 304 321 366 358 353 352 345 324 320 315 314 313 321 321 318 314 313 311 303 305 307 305 304 301 302 301 302 308 311 317 318 321 321 323 325 325 330 332 329 328 328 327 328 325 329 334 338 340 340 341 342 344 344 345 346 346
318 318 319 319 319 319 320 320 319 319 319 319 319 320 320 320 319 319 319 319 319 319 320 320 318 318 321 318 306 299 300 304 308 331 351 342 338 328 322 323 317 318 318 321 322 321 315 313 312 311 305 308 307 304 303 300 300 303 302 309 312 316 319 322 324 324 328 331 333 330 328 329 330 331 326 327 331 335 338 338 339 339 340 342 344 345 345 346
318 319 318 318 319 319 319 319 319 319 319 319 319 319 319 319 318 318 319 319 319 319 319 319 319 320 319 318 295 294 302 309 349 353 337 335 326 322 321 321 319 319 317 321 320 317 315 315 314 313 312 309 307 304 303 304 303 304 305 311 316 317 322 324 324 324 327 327 328 327 326 329 332 325 319 328 332 335 336 336 337 337 337 340 343 345 346 346
318 318 318 318 318 319 319 319 319 319 319 319 319 319 319 319 319 318 319 319 319 320 320 320 321 318 318 317 297 294 315 325 342 339 336 328 323 321 321 318 316 314 316 318 319 320 318 317 319 315 307 305 305 304 304 306 305 304 313 313 311 316 321 323 324 324 326 328 331 329 326 330 332 328 322 327 332 335 333 333 334 334 334 337 341 342 344 345
318 318 318 318 318 318 318 318 318 318 319 319 318 318 318 318 318 318 319 319 319 321 320 321 322 319 317 314 304 306 323 321 339 334 335 324 320 319 323 319 317 317 319 316 317 320 319 318 311 310 304 308 301 307 305 306 306 308 317 309 310 318 321 323 323 324 327 326 330 325 321 321 327 324 329 328 333 332 331 331 331 331 332 334 337 339 341 343
317 317 318 317 317 317 317 318 318 318 317 317 317 316 317 317 317 318 318 318 320 320 320 322 322 319 320 310 309 315 321 332 330 329 328 323 320 320 325 322 318 320 317 316 317 318 319 312 312 311 309 304 304 302 306 306 306 308 310 309 311 313 314 320 315 323 326 327 327 320 305 308 321 328 330 331 331 331 329 328 329 329 331 333 334 336 337 340
317 317 317 317 317 317 317 317 317 317 316 317 316 315 316 316 317 318 319 319 321 321 321 323 321 319 316 310 318 327 326 327 328 325 324 325 318 318 320 324 325 323 323 320 318 316 315 310 315 313 309 306 306 309 305 303 303 304 303 304 304 309 309 317 317 322 323 329 324 321 307 311 321 328 332 333 333 330 328 330 330 330 330 332 333 334 335 338
316 317 317 317 317 316 317 317 316 316 316 315 315 315 316 316 317 319 320 322 322 322 323 325 322 318 314 315 322 339 347 324 321 322 325 320 317 316 318 319 321 321 320 321 320 319 315 310 310 306 306 311 307 306 299 298 297 300 302 298 297 305 306 309 313 323 320 325 327 321 311 313 322 327 332 334 333 332 329 331 331 330 330 331 332 333 334 336
316 316 317 316 316 316 316 316 315 315 315 314 313 315 319 319 320 321 322 323 323 324 323 321 319 318 308 303 317 342 319 316 317 320 323 321 318 316 316 317 318 317 318 319 320 321 314 313 306 305 308 307 300 296 295 297 298 295 298 295 298 299 305 305 311 322 317 323 318 319 311 317 323 326 332 335 334 333 331 331 332 332 332 332 332 333 334 336
315 315 315 315 316 316 316 315 314 315 314 313 314 317 320 322 323 324 324 325 324 324 322 320 321 322 301 311 323 313 316 317 318 319 321 323 320 318 315 316 315 313 311 314 315 313 312 308 308 306 302 300 297 297 296 289 291 298 295 294 294 301 301 301 311 315 318 317 315 321 319 317 319 328 332 335 335 333 331 331 332 333 333 334 334 336 336 336
315 315 315 315 316 316 315 314 314 314 313 312 314 314 321 325 326 325 324 324 324 323 321 325 320 307 304 309 308 308 311 312 318 317 318 319 320 318 315 314 312 309 306 309 309 309 310 307 303 301 297 296 299 294 293 292 294 292 296 294 296 298 305 304 310 313 317 317 317 317 318 317 323 328 331 333 335 332 331 332 333 333 334 334 335 336 337 337
316 315 315 315 315 315 314 313 313 313 312 312 318 322 324 325 320 316 318 320 310 307 303 311 306 302 298 307 311 313 314 313 316 317 316 317 319 316 319 313 310 311 306 304 305 308 304 301 299 297 301 297 299 298 294 297 295 295 293 293 295 299 299 303 312 314 317 313 315 316 315 319 323 326 330 333 334 331 332 332 332 333 333 334 334 335 335 337
315 315 315 315 314 314 314 313 313 312 311 309 312 315 313 306 303 304 314 317 311 310 308 308 314 314 314 311 312 316 317 317 312 314 314 324 318 314 312 310 307 304 303 301 301 305 304 299 298 297 296 297 299 300 301 299 298 298 295 294 296 299 300 307 310 315 318 312 310 313 317 321 322 325 329 332 332 331 330 330 330 330 332 333 333 335 335 337
314 314 314 314 314 313 313 312 312 312 310 307 310 309 304 304 301 300 307 309 314 315 313 313 314 313 311 314 315 312 311 312 312 312 315 324 313 314 310 307 302 302 300 300 303 304 301 297 297 299 299 299 300 300 299 298 299 299 296 295 294 300 300 308 311 316 313 311 310 315 318 318 319 325 329 331 331 328 328 328 329 329 330 332 334 335 337 340
314 314 314 313 313 313 312 312 312 311 308 309 310 307 307 310 313 313 310 305 310 312 314 313 315 313 315 316 318 314 310 307 310 312 312 317 312 308 305 302 300 301 300 304 300 295 294 297 298 299 301 300 300 300 301 299 296 297 296 296 298 300 305 309 308 309 314 314 309 316 316 315 320 324 327 329 328 327 329 329 330 329 329 331 333 335 336 338
314 314 313 313 312 312 311 311 310 309 308 314 313 308 315 319 315 315 314 306 305 311 310 310 310 310 312 314 317 318 307 304 306 308 308 314 308 308 304 302 299 301 300 300 300 299 300 294 299 301 300 300 299 298 298 298 298 297 298 298 297 303 307 301 308 312 314 312 312 314 314 312 316 320 322 325 326 326 328 330 330 331 330 330 333 334 335 336
314 314 313 312 311 311 311 310 309 311 312 312 312 314 319 316 318 317 313 304 302 307 310 311 311 309 309 309 313 311 308 306 305 307 316 311 307 305 304 298 299 300 300 299 298 297 298 299 301 299 299 300 297 297 299 298 297 299 300 299 299 303 304 308 303 310 315 317 318 315 309 308 311 316 319 322 329 328 329 329 328 329 330 331 332 333 336 336
314 314 314 312 310 311 309 308 309 311 311 314 314 316 316 320 317 315 310 303 300 303 313 310 314 311 311 313 313 311 306 306 305 308 313 311 305 305 304 303 300 299 297 298 298 299 298 301 302 300 298 297 297 297 297 299 296 297 298 301 305 302 304 306 309 307 304 306 314 314 298 299 305 311 315 319 323 324 326 325 325 326 328 330 331 332 334 336
314 313 313 311 311 310 309 309 310 307 309 311 314 318 319 319 320 314 303 293 294 296 305 303 312 309 313 307 312 306 307 305 306 308 313 311 316 306 306 303 302 301 297 297 298 295 298 300 302 300 300 299 297 297 297 297 293 293 298 300 301 304 308 308 305 305 299 300 311 312 298 292 298 309 313 317 320 321 324 324 326 325 327 329 330 331 333 335
313 313 312 311 311 309 301 302 304 308 308 314 317 318 318 320 323 316 309 291 292 301 301 306 306 306 311 308 307 306 295 299 306 312 314 323 310 313 303 299 303 304 301 300 297 298 303 301 299 299 299 297 297 297 297 297 295 295 298 297 304 307 307 307 307 304 298 308 306 305 300 296 296 307 313 319 320 319 321 324 324 326 327 328 329 330 332 334
313 312 311 310 309 309 302 304 307 304 304 311 318 316 318 321 320 313 298 287 289 306 301 301 306 312 310 308 308 303 302 306 302 306 310 316 311 306 306 300 301 300 302 299 294 296 301 302 300 299 297 295 296 296 298 296 294 296 297 303 306 308 307 306 306 296 296 304 300 304 304 296 293 299 311 320 316 317 320 322 324 325 327 328 328 330 332 334
311 311 311 311 309 309 307 305 307 304 305 314 314 314 321 319 313 302 291 287 303 299 310 304 313 309 305 308 305 304 304 306 302 306 309 310 310 305 304 300 299 298 302 301 295 295 302 301 301 301 299 297 299 300 299 300 299 299 299 301 301 300 301 302 298 299 300 297 295 301 302 296 288 293 311 315 314 316 319 322 324 325 326 327 327 329 331 332
312 311 311 310 307 307 304 306 305 309 312 312 312 316 321 312 302 296 291 287 302 299 304 304 304 301 302 301 301 303 304 303 305 306 306 305 306 307 306 303 302 301 302 299 302 298 301 316 309 303 299 299 298 299 299 300 301 300 300 299 297 296 296 297 294 293 293 291 287 299 304 300 291 296 311 312 314 318 320 321 324 325 326 327 327 329 330 330
310 310 310 310 302 305 305 299 302 308 311 312 316 317 316 306 295 286 285 292 303 302 304 302 301 303 300 299 297 299 303 301 304 305 303 306 303 302 304 304 301 296 293 293 299 297 301 303 306 305 314 302 300 300 300 300 300 300 297 294 296 294 294 292 289 290 288 283 287 292 302 300 292 289 304 318 315 320 321 321 322 324 325 326 326 328 330 329
309 308 310 306 306 309 301 298 305 309 310 317 318 311 307 300 297 289 289 305 297 298 298 297 301 300 299 301 299 299 299 302 302 302 300 299 297 299 298 294 297 292 290 290 295 297 300 301 302 303 326 304 298 298 299 297 296 299 296 296 291 286 285 287 287 289 285 283 296 295 300 299 296 297 302 312 319 317 323 324 324 325 325 326 326 327 328 328
307 307 308 308 309 305 306 306 308 307 311 319 311 306 299 289 287 289 296 299 298 300 301 301 299 299 298 299 298 300 301 299 299 302 300 300 298 298 298 299 297 297 293 293 296 296 296 297 301 303 303 313 300 297 297 296 296 296 296 289 286 285 281 281 280 282 283 289 292 295 301 296 296 301 303 307 313 319 322 325 327 327 326 326 327 326 327 326
307 307 303 307 308 308 311 313 309 308 316 315 311 306 297 290 291 316 297 297 302 306 303 300 300 297 299 297 296 299 297 299 299 300 301 298 298 296 299 300 298 300 295 296 293 291 291 292 298 301 299 301 300 297 298 295 294 295 295 294 292 285 283 284 282 285 284 286 289 293 295 289 296 299 310 312 315 316 321 325 326 327 327 327 327 325 325 325
306 305 303 304 307 310 310 311 311 312 313 306 303 297 292 288 292 295 300 300 301 303 302 302 299 298 297 299 297 299 299 299 300 298 298 297 294 293 294 297 299 296 297 294 294 294 293 291 296 301 304 303 303 303 301 299 297 298 294 295 294 292 290 289 285 285 285 289 290 296 292 295 297 307 315 314 315 315 319 323 325 325 324 323 323 323 324 324
304 304 307 305 310 313 310 311 310 310 310 303 298 294 293 294 297 299 302 304 304 303 303 297 296 296 293 295 296 300 302 300 299 301 298 297 296 296 296 297 299 300 296 293 294 292 294 293 297 303 303 302 303 305 305 302 295 297 297 294 297 297 299 293 296 293 292 286 286 290 297 298 303 305 311 312 314 315 318 320 323 322 322 321 322 322 323 324
302 306 304 307 310 314 312 312 312 312 307 301 296 292 295 299 301 300 315 306 306 306 298 296 295 294 293 292 293 296 299 301 298 297 293 296 297 297 298 298 298 299 301 297 297 296 293 290 297 300 302 304 303 303 303 301 301 297 294 295 301 301 297 293 288 286 283 284 285 292 294 295 292 292 305 311 311 313 315 317 320 320 320 320 322 322 323 323
300 303 309 313 314 315 313 312 314 309 304 300 297 314 304 302 306 306 307 306 305 304 299 296 296 298 293 291 295 296 298 297 294 297 292 296 295 299 299 300 301 303 302 300 300 298 297 294 296 300 300 303 303 302 302 304 303 299 298 301 299 293 293 291 289 284 285 284 282 282 291 296 295 296 301 305 309 311 313 315 317 317 318 320 321 322 322 322
301 304 299 310 311 317 313 315 315 308 301 300 291 300 306 305 306 306 308 309 306 303 298 296 296 299 294 294 295 299 296 293 293 293 294 295 294 299 300 301 303 300 302 301 300 298 297 292 293 299 300 303 301 299 296 298 302 301 301 298 299 294 288 291 291 287 287 284 284 283 290 290 299 300 304 306 310 312 312 313 315 318 319 320 321 321 320 320
302 297 296 307 311 319 320 318 307 303 300 296 294 300 301 303 306 308 307 309 304 301 297 298 299 297 300 297 296 298 299 294 292 293 296 297 296 299 302 304 303 302 300 302 299 302 298 295 291 296 299 301 298 299 297 296 295 297 296 294 297 295 296 295 294 292 290 283 281 282 283 286 295 303 307 308 310 313 314 314 316 317 319 321 321 321 320 320
302 296 297 306 312 315 320 310 307 303 299 299 302 302 303 304 306 307 308 309 307 307 305 299 297 298 296 297 298 301 299 295 294 294 295 297 296 296 300 302 303 301 301 302 301 298 297 297 294 296 299 295 293 297 300 298 300 298 296 294 296 293 294 291 289 290 291 289 282 282 286 287 295 306 311 311 311 314 316 316 316 317 319 320 321 321 320 319
297 292 297 307 313 314 313 304 301 302 300 300 299 302 304 321 311 307 306 306 306 304 305 305 299 300 297 300 297 298 298 297 298 298 299 295 299 299 302 304 304 301 302 297 299 298 300 296 295 293 293 295 299 300 304 301 300 297 299 297 296 294 292 286 286 288 290 292 293 287 287 289 298 304 309 312 312 315 316 316 316 317 318 319 320 320 319 320
296 294 300 309 313 308 305 295 302 301 300 300 303 300 305 303 304 306 303 304 305 305 303 302 302 300 299 301 300 299 298 299 299 297 299 298 299 301 301 304 302 303 301 303 302 307 330 294 295 294 292 296 300 301 305 302 301 301 300 297 296 296 294 294 290 290 290 290 289 288 288 287 294 305 309 312 312 314 315 316 316 316 318 319 318 317 317 317
296 296 303 309 314 303 300 296 295 294 297 302 301 299 301 301 302 299 300 300 303 303 301 301 304 303 303 301 299 300 300 297 300 301 302 302 304 305 307 307 306 306 303 304 301 306 299 295 294 289 289 289 292 295 298 299 302 298 298 300 297 298 297 295 294 293 292 290 291 287 285 285 296 304 308 311 313 314 314 315 316 315 316 318 317 316 316 318
297 300 298 303 315 304 299 293 294 292 297 297 296 297 299 299 300 301 300 300 307 303 302 301 302 302 302 301 301 301 304 301 298 301 302 302 302 309 307 307 311 309 314 312 325 305 298 297 293 287 286 287 286 286 287 292 297 298 303 302 300 297 294 297 295 293 288 288 291 287 286 288 294 302 308 309 310 312 313 314 315 315 316 316 316 316 316 317
300 295 303 304 307 307 306 303 302 299 295 297 296 296 299 295 301 303 300 301 303 304 302 304 302 302 300 301 301 299 301 303 300 300 301 303 301 304 305 309 315 312 332 338 327 312 300 299 290 289 293 291 294 293 295 301 298 297 300 298 298 298 297 297 292 288 290 285 290 285 291 294 295 300 306 307 308 310 311 310 312 313 315 316 316 316 317 317
300 297 299 295 303 303 302 302 304 302 300 302 293 298 299 298 301 303 304 302 305 304 303 303 304 302 301 300 298 299 301 303 302 301 300 302 301 303 303 309 312 329 338 329 321 303 299 298 297 292 296 298 296 294 299 308 299 298 299 300 298 296 296 296 294 292 291 291 287 287 287 294 296 298 301 306 308 309 311 311 311 312 314 316 316 317 322 317
295 302 303 303 295 292 297 297 304 303 304 303 295 302 299 299 300 299 303 304 303 303 302 302 300 301 300 300 299 299 300 300 300 301 302 302 303 304 305 306 309 315 317 304 311 303 298 296 298 298 298 298 295 298 303 302 301 299 298 297 298 298 297 298 295 297 295 294 293 292 289 295 296 299 302 305 309 311 312 312 312 314 315 315 315 316 317 316
302 303 303 306 299 300 301 304 305 304 299 304 300 302 298 299 298 301 301 301 301 300 301 299 300 300 300 300 300 298 300 298 297 300 300 302 302 303 302 304 310 304 303 302 303 304 298 295 299 299 296 297 300 301 300 300 299 300 301 297 297 296 296 297 298 297 297 297 297 299 293 296 299 300 301 303 309 311 311 311 313 313 314 316 316 315 317 316
296 296 297 302 302 300 301 302 302 299 295 303 297 298 299 299 299 301 303 300 297 298 303 299 298 299 300 301 298 299 300 299 299 301 302 303 302 302 300 300 303 305 303 304 304 304 300 297 307 299 295 297 297 302 301 300 299 298 297 298 297 296 296 296 298 299 301 298 298 298 296 297 301 303 304 305 310 310 310 311 311 313 314 316 315 315 316 317
300 302 301 298 296 300 305 300 298 296 293 296 295 298 300 299 299 301 300 304 301 300 302 301 302 300 303 302 302 301 303 303 303 304 304 303 303 302 303 303 303 303 303 304 301 304 300 296 297 295 295 293 297 300 300 299 298 298 297 297 298 299 299 297 297 299 298 297 296 297 295 295 301 303 308 309 309 310 310 310 310 312 314 316 315 315 316 317
300 303 302 300 295 306 297 299 298 295 293 297 300 298 298 299 300 301 297 302 305 304 305 304 304 302 301 301 300 302 304 305 305 305 305 306 305 306 306 305 305 303 300 301 302 302 297 298 296 292 292 289 294 299 297 294 297 295 296 298 299 297 299 300 301 303 303 302 297 294 294 299 300 306 307 307 308 309 309 310 311 312 314 316 316 316 316 317
Wind_Speed
21 20 19 19 19 19 20 21 19 19 20 20 19 19 18 17 17 16 15 15 15 14 14 14 14 14 14 13 13 13 11 4 5 1 1 11 7 7 8 4 8 8 7 3 4 4 0 3 3 3 2 5 1 1 1 2 2 2 1 5 4 2 3 5 5 5 3 6 2 3 4 12 4 2 2 5 7 7 8 8 5 12 9 11 13 17 18 15
20 19 19 19 20 21 21 20 20 20 21 20 20 19 18 17 17 16 16 15 15 14 14 14 13 12 12 11 11 11 9 3 3 3 15 5 4 7 6 5 9 9 6 4 5 3 3 4 3 4 5 1 1 0 1 0 1 3 2 4 6 4 1 3 3 6 7 4 4 4 3 8 4 8 3 4 1 3 9 7 9 13 13 15 16 17 17 16
20 20 21 21 20 20 20 21 20 21 21 20 20 19 18 18 16 16 15 15 15 14 13 13 12 11 10 10 9 10 7 2 1 6 8 9 15 6 5 5 8 7 2 5 1 4 2 1 0 3 3 1 5 1 3 2 1 1 3 3 0 4 1 3 7 5 5 13 10 7 3 8 7 2 2 3 3 5 9 8 7 12 14 15 16 16 16 14
21 22 21 20 21 21 21 21 21 21 21 21 21 20 18 18 17 16 15 15 14 13 12 11 10 9 9 8 8 6 2 1 1 2 2 3 4 10 7 8 9 5 5 5 4 2 2 4 4 3 1 4 3 2 2 2 1 0 4 1 2 3 6 1 1 8 7 10 10 9 4 8 1 1 2 6 6 1 1 3 9 14 16 16 16 16 15 14
20 21 22 22 20 20 21 22 22 21 21 21 21 19 18 17 17 16 15 15 14 12 11 10 9 7 7 6 6 3 0 1 3 2 2 3 3 6 10 9 9 3 3 5 4 3 5 4 2 3 3 1 3 2 1 2 1 3 1 3 4 2 4 1 4 5 7 6 10 8 9 4 2 4 3 4 5 4 5 3 8 17 17 18 16 15 13 14
24 23 22 22 20 21 21 21 20 21 21 21 20 19 19 18 17 16 15 14 13 11 10 8 7 6 5 4 3 3 1 2 1 2 3 2 1 6 12 10 9 6 5 4 2 2 2 4 3 2 3 2 2 4 3 0 1 2 1 0 3 2 9 2 4 5 8 5 8 5 2 4 3 3 0 1 1 1 1 8 12 14 15 15 14 14 13 13
22 21 21 20 20 21 21 20 20 19 19 19 19 19 18 18 16 14 14 13 11 10 8 7 6 6 4 5 2 0 2 6 2 6 7 6 5 12 13 9 8 6 5 4 2 1 2 3 5 0 1 3 0 1 1 3 4 6 2 1 2 1 9 5 5 6 6 11 6 4 6 6 6 4 1 4 2 2 10 11 12 13 13 14 14 12 14 13
22 22 21 21 21 20 20 20 20 19 19 17 18 18 18 17 16 15 14 12 10 9 7 5 4 4 3 2 1 2 1 4 7 2 5 9 10 13 12 5 7 5 4 3 4 2 2 4 4 1 3 2 1 2 3 5 6 4 2 1 3 5 2 5 6 7 9 7 7 9 8 3 2 2 2 4 3 9 11 11 13 13 12 11 12 12 11 11
23 21 20 20 21 20 20 20 20 19 18 17 17 17 17 17 16 14 12 10 9 7 6 4 2 2 0 0 1 1 4 5 3 3 7 8 8 9 7 4 2 6 4 2 1 4 2 0 1 2 1 0 0 4 6 5 5 2 2 2 4 4 4 6 9 6 8 5 11 14 8 3 3 11 8 2 4 8 11 12 12 13 12 12 12 12 12 11
21 21 21 21 21 21 21 21 21 20 19 19 18 17 17 16 14 13 11 9 7 6 4 1 4 4 1 0 2 3 5 2 2 4 6 8 8 7 8 7 7 7 5 1 3 3 2 3 1 3 4 1 0 2 1 7 1 1 7 4 7 4 8 3 9 6 2 2 1 6 4 2 2 4 2 3 4 9 11 10 10 12 12 11 10 10 10 12
24 22 21 21 21 21 22 22 22 21 20 20 18 17 16 15 13 12 10 8 7 5 3 5 4 3 1 0 5 4 2 3 1 3 6 7 8 8 6 6 5 4 4 2 2 3 2 5 2 3 2 0 1 2 1 1 2 5 11 9 7 6 7 5 5 7 3 3 1 11 6 6 10 6 2 4 3 9 12 10 8 8 9 10 10 9 7 7
24 22 22 21 22 22 22 23 21 21 21 20 19 17 15 15 13 11 9 6 5 4 5 5 7 2 1 1 1 4 2 3 3 3 6 5 4 5 8 8 6 7 7 4 3 3 3 3 4 1 0 0 2 1 1 2 3 6 16 7 4 6 6 1 5 3 2 2 4 3 13 8 9 3 1 4 5 6 10 9 8 6 6 8 8 7 7 8
25 23 22 23 22 23 23 23 21 21 21 21 19 17 16 14 12 9 7 5 7 5 6 7 5 1 0 0 7 8 2 2 5 6 4 1 3 2 3 4 3 4 4 4 1 3 3 4 3 3 2 3 2 1 1 5 1 5 6 10 6 4 2 4 2 2 1 5 1 3 3 5 4 3 2 3 8 7 8 6 5 4 5 6 7 7 6 6
24 23 24 23 23 23 23 21 21 20 22 20 21 18 15 11 7 6 5 5 6 7 7 8 3 2 0 3 6 4 3 4 5 4 3 1 4 1 3 1 1 1 2 3 2 4 3 1 1 2 1 1 1 1 3 3 2 7 1 5 5 8 5 5 2 4 3 1 4 1 6 2 1 2 3 3 8 10 8 4 4 4 5 6 6 7 7 8
23 24 24 24 24 24 21 20 20 20 21 21 20 17 12 6 3 3 6 5 7 9 8 7 1 1 1 6 5 7 7 2 3 2 4 3 4 3 2 2 1 2 1 2 1 1 3 3 2 2 0 1 1 2 2 3 5 2 7 1 2 5 4 4 3 4 4 2 3 9 5 5 2 1 3 3 4 8 7 4 4 4 5 6 5 6 6 7
24 24 24 25 26 24 22 21 21 19 21 21 19 13 8 3 8 8 9 6 8 8 5 0 1 0 1 2 1 2 1 0 1 3 4 3 2 2 3 5 2 1 0 1 2 3 1 2 5 1 1 1 7 6 5 4 2 5 6 2 4 2 5 1 4 5 3 1 4 3 5 2 0 2 3 4 7 7 7 3 3 4 5 6 6 6 5 5
24 23 23 26 25 24 23 21 20 19 21 20 15 8 3 9 11 11 9 8 5 4 2 1 1 2 1 1 0 0 2 3 2 2 1 2 2 3 3 2 2 2 3 2 5 3 3 2 3 1 5 5 3 5 3 4 1 0 1 5 4 7 4 2 1 5 1 2 1 4 7 3 2 5 4 3 5 7 7 4 3 3 4 4 5 5 5 6
24 24 25 25 24 25 24 21 20 19 19 18 10 4 5 9 13 13 7 3 2 2 3 3 1 1 4 3 0 0 0 3 2 3 3 1 3 2 3 3 1 4 5 3 3 2 1 0 4 3 2 4 2 3 3 2 5 4 2 4 0 0 8 7 8 6 6 2 6 4 8 4 5 6 4 3 1 7 6 6 5 5 5 4 4 3 4 4
25 25 24 24 24 24 25 23 21 19 15 14 3 7 5 5 0 1 2 1 1 1 1 0 1 1 3 2 3 6 2 6 3 5 2 4 0 2 2 3 3 3 1 2 1 1 3 2 4 4 0 1 1 5 5 4 5 2 5 5 5 8 5 6 4 3 10 4 7 4 9 7 6 6 6 3 2 4 5 4 4 4 4 4 3 3 3 3
25 24 24 24 24 25 25 24 21 19 12 5 1 2 1 3 2 1 0 0 3 4 3 3 3 2 4 5 2 3 1 1 4 1 3 1 6 2 4 2 4 5 3 1 1 1 1 2 3 4 5 5 4 8 8 5 5 5 4 5 7 8 2 1 2 1 7 8 3 2 6 8 6 5 6 5 3 3 5 6 4 3 5 5 4 3 2 1
23 24 24 24 25 25 25 24 22 19 7 3 1 0 3 0 3 4 6 7 5 4 4 4 8 4 4 1 2 3 3 1 1 0 1 2 6 5 1 2 2 1 1 2 2 2 3 1 4 7 5 8 8 7 2 4 2 3 4 5 3 3 5 1 2 1 5 6 2 4 8 5 3 3 4 6 4 4 6 6 5 4 3 5 7 5 3 3
25 23 26 25 26 25 24 24 23 18 4 2 1 1 1 1 3 2 1 7 5 5 6 5 1 4 4 6 3 2 3 2 2 1 1 3 1 3 1 3 3 5 1 0 1 2 4 2 7 4 5 5 5 3 2 3 4 3 6 6 7 1 4 4 3 5 4 8 0 4 10 3 1 2 3 5 5 1 2 2 5 9 5 4 5 5 5 3
24 24 25 26 26 27 25 24 23 15 1 1 2 1 1 5 3 3 1 1 7 2 3 1 3 5 5 3 2 6 2 3 4 2 4 2 1 4 4 3 3 2 1 2 4 0 2 5 9 4 6 6 1 2 4 4 3 6 7 7 7 8 10 2 0 4 6 3 7 4 9 1 1 2 2 0 2 1 0 1 1 4 8 6 6 6 7 5
24 23 25 24 27 27 26 24 22 4 0 1 2 1 3 3 2 1 1 2 4 7 3 5 3 3 5 1 4 6 5 2 3 4 2 6 6 3 5 4 2 1 3 4 5 7 8 5 3 5 5 7 4 3 7 6 4 0 5 6 8 5 2 9 5 3 6 11 10 10 6 2 1 2 2 1 1 3 2 3 0 0 2 3 3 2 4 9
24 23 24 25 26 27 27 22 4 2 4 0 3 4 3 4 1 2 2 3 1 5 3 1 3 3 3 0 4 3 2 1 4 2 4 8 3 3 3 2 2 2 2 2 3 1 9 5 4 4 3 3 6 5 4 8 7 0 2 8 11 7 10 8 8 6 5 2 2 10 3 3 4 4 4 2 1 2 1 3 4 2 3 4 6 5 3 3
24 24 22 24 25 27 28 2 1 5 6 1 1 1 3 4 1 2 3 2 2 3 1 2 1 1 1 0 2 2 4 1 4 4 5 7 5 4 1 0 1 1 3 4 4 3 5 2 1 3 4 2 4 4 5 2 7 5 3 4 6 10 13 14 7 8 3 6 9 1 6 4 4 5 5 3 3 4 1 3 5 3 3 5 5 5 6 6
25 23 22 22 20 21 10 1 3 6 2 1 0 4 4 4 1 1 0 3 1 2 3 1 0 1 0 2 4 2 3 3 1 2 3 2 6 0 4 2 1 1 3 2 3 2 0 2 6 5 5 3 4 3 4 8 8 4 3 8 10 12 15 12 11 7 3 0 3 4 2 3 1 8 4 4 4 4 4 6 6 5 5 6 5 6 6 6
25 23 22 20 17 9 4 5 8 3 5 2 2 5 4 3 1 3 2 1 1 1 1 1 1 0 1 1 7 4 3 1 3 2 1 3 4 2 1 4 5 5 2 2 1 3 2 0 2 4 2 2 4 4 6 3 4 3 6 11 12 15 13 10 8 5 2 7 2 5 0 2 3 5 1 8 5 5 9 10 10 8 7 6 6 7 7 8
26 23 20 19 19 14 4 4 0 4 2 3 5 4 4 2 4 4 3 1 1 0 3 3 4 1 2 1 2 0 1 0 2 1 1 3 2 3 1 5 4 3 1 2 5 2 1 3 6 8 8 4 4 0 7 7 4 1 9 7 7 7 6 4 7 7 1 3 5 8 5 3 4 3 1 1 3 8 13 13 11 9 9 8 8 7 7 6
25 23 20 17 13 2 1 1 7 8 5 6 6 4 1 2 2 1 1 1 1 0 0 1 1 2 2 4 2 1 1 1 1 0 2 3 1 2 1 3 3 1 1 4 1 7 3 3 7 3 2 3 4 1 1 1 3 8 8 9 8 8 5 4 6 4 5 1 7 7 8 5 2 6 10 11 12 16 9 4 6 6 7 8 8 8 8 8
25 24 18 12 4 3 1 5 10 6 6 4 5 1 1 5 3 3 1 2 1 1 1 1 2 3 5 5 3 2 1 1 1 2 0 0 3 3 1 0 6 5 4 5 1 5 3 1 1 1 1 3 3 4 4 2 2 5 3 5 7 5 6 5 4 5 3 4 3 2 8 3 5 4 5 12 2 5 12 15 15 13 13 11 10 8 9 9
28 27 21 8 7 2 5 5 1 1 2 4 2 2 2 2 2 2 2 2 0 2 1 1 0 2 5 1 3 3 4 0 1 2 5 3 5 4 3 5 3 1 3 0 4 2 1 2 1 4 2 6 2 6 2 5 4 7 7 7 6 2 2 2 3 1 5 4 0 1 8 2 6 9 5 9 11 3 9 12 16 17 14 12 10 10 8 8
29 27 27 11 9 4 9 8 3 4 5 3 2 3 1 4 1 3 1 1 1 2 1 2 2 3 3 2 3 0 1 5 2 0 4 1 3 3 2 3 4 4 2 3 1 2 3 3 4 2 2 1 5 8 1 4 1 5 5 5 5 1 1 1 2 1 4 5 4 1 1 2 4 8 5 5 8 8 6 8 10 13 15 15 13 10 8 8
29 26 12 4 9 10 3 1 4 3 2 1 1 2 6 2 2 5 1 2 0 1 1 1 2 3 6 7 4 5 2 2 4 2 2 1 1 2 2 0 4 0 4 1 3 4 2 2 5 4 3 1 3 6 10 7 4 2 2 6 7 7 4 2 3 3 4 5 2 3 2 5 2 3 3 7 6 5 8 8 8 11 12 11 8 6 6 6
31 20 8 4 5 10 14 8 3 3 1 3 6 4 3 5 2 1 2 2 2 1 1 1 3 4 1 1 1 2 4 3 2 4 2 5 4 3 4 5 2 4 2 5 2 2 3 6 5 4 1 2 5 1 4 6 5 0 2 5 6 4 6 1 4 2 1 0 1 2 3 3 4 1 3 2 4 5 6 7 8 10 7 7 7 9 10 9
19 8 2 3 2 3 6 7 6 2 4 5 3 1 4 5 1 2 0 3 0 1 5 3 3 4 1 1 2 1 4 0 1 2 1 3 3 4 3 3 6 9 6 6 4 2 2 1 2 6 1 1 1 2 0 3 1 3 2 2 1 3 9 6 1 1 1 4 2 0 6 4 8 3 2 3 3 1 5 8 10 10 10 9 10 10 10 9
9 10 4 5 3 2 4 8 8 7 5 6 4 3 6 3 5 3 2 1 2 1 1 2 1 3 3 3 2 1 1 1 1 2 4 0 2 4 2 4 4 5 7 9 2 3 7 4 2 3 0 1 1 1 4 4 3 8 1 5 2 3 6 4 2 2 4 1 4 2 1 7 5 3 1 1 2 3 5 7 8 9 9 12 11 11 11 11
9 5 5 5 6 2 6 8 8 5 6 4 3 6 1 1 1 2 1 3 2 2 0 1 1 3 2 2 2 1 1 6 2 2 3 2 3 2 5 2 5 10 10 3 5 2 4 1 1 1 2 2 2 2 7 4 1 3 2 5 2 1 0 3 5 0 0 1 2 2 2 4 5 6 2 4 5 7 6 6 8 10 12 13 12 12 10 6
3 2 1 0 6 5 4 6 1 5 3 2 3 1 3 4 2 1 3 1 3 1 0 3 1 0 3 1 2 0 3 3 2 4 4 2 2 2 4 4 3 6 7 6 2 1 2 4 4 1 2 0 2 4 4 1 5 5 6 3 0 3 3 3 4 4 4 0 1 4 3 3 6 5 7 8 10 10 9 8 13 15 16 14 13 13 11 10
5 2 1 0 7 2 6 2 3 5 4 3 3 3 1 1 3 4 3 1 2 1 2 1 1 0 0 0 3 3 1 3 5 4 2 2 5 2 2 2 2 1 3 3 3 2 2 1 4 2 2 2 2 1 6 7 5 2 3 1 1 2 2 4 2 1 2 4 3 1 3 6 7 7 7 10 10 13 15 15 12 12 14 15 14 13 11 10
3 1 2 1 9 2 2 2 2 2 1 1 1 2 1 1 2 2 5 6 2 3 5 1 2 0 3 1 2 0 1 1 3 3 3 1 5 2 4 4 2 3 2 2 3 1 3 1 6 1 3 4 3 2 2 6 7 9 8 7 8 7 3 1 3 2 2 2 3 3 7 7 10 3 9 8 7 11 14 14 14 13 13 13 12 11 10 10
3 1 1 2 8 1 3 2 0 1 1 2 3 2 1 3 1 3 2 1 5 3 1 0 1 1 1 1 1 1 2 1 1 1 2 5 3 3 1 3 2 6 7 6 7 5 3 3 7 4 6 4 2 3 3 4 2 3 5 3 6 3 7 4 1 3 1 0 5 3 0 8 6 2 4 4 6 11 12 10 10 10 12 12 10 8 7 9
4 5 7 7 4 1 4 1 1 0 2 3 3 3 1 2 2 3 1 1 1 2 0 1 3 2 3 2 1 0 3 1 4 2 1 1 2 7 6 4 5 6 5 1 3 2 6 3 4 2 4 6 4 2 2 3 5 4 3 3 5 4 5 8 5 5 7 2 0 1 1 6 4 1 3 4 4 5 6 10 13 10 9 8 8 8 9 8
2 4 8 4 4 2 4 3 2 1 3 3 1 3 3 2 1 2 2 2 2 1 1 1 1 1 1 1 2 1 3 1 2 1 1 1 0 2 2 3 7 3 6 8 8 6 3 2 8 3 2 4 5 2 1 3 2 1 2 1 2 4 5 3 5 0 1 7 7 6 6 4 2 3 3 1 3 6 10 10 9 10 7 8 8 7 8 8
4 3 4 9 6 2 2 1 1 1 0 2 2 4 5 1 5 7 4 3 1 1 0 2 2 1 0 0 1 1 1 0 0 1 0 2 1 1 4 7 1 2 2 3 3 6 2 4 6 6 7 6 4 1 6 6 7 1 0 2 1 6 8 4 1 1 3 2 4 2 5 10 8 4 2 2 3 5 6 6 6 5 7 9 8 8 9 9
3 2 4 5 6 6 5 1 3 1 1 2 2 2 0 2 5 3 5 4 4 3 3 2 1 1 1 1 1 1 1 2 1 1 1 0 1 2 2 6 4 1 4 9 4 5 3 1 3 7 10 10 11 8 5 3 3 2 1 3 3 2 2 4 5 5 6 3 5 7 5 4 6 3 3 5 5 10 10 8 11 10 8 7 7 9 9 9
0 2 2 5 7 6 2 2 4 4 1 0 0 2 3 2 3 6 1 1 1 1 1 1 1 1 1 1 1 1 0 1 3 1 0 0 2 2 5 2 2 6 2 4 2 6 3 3 1 6 6 8 6 2 2 1 4 2 4 3 1 4 4 6 5 5 4 8 6 5 7 3 9 8 8 7 8 7 6 6 6 6 10 12 10 8 8 7
1 1 1 2 0 2 5 4 7 5 4 1 1 0 3 4 5 4 7 1 5 1 0 0 3 1 3 3 3 2 1 1 1 1 2 1 1 2 2 4 3 6 3 1 2 3 5 4 2 2 1 1 3 1 0 1 1 3 4 4 3 3 3 4 4 4 7 5 9 5 6 5 7 8 10 10 10 12 15 14 8 3 4 6 9 11 11 10
2 1 0 1 1 2 1 5 5 3 3 3 0 5 4 6 4 3 1 7 6 3 6 0 1 4 1 3 2 2 2 2 1 0 2 0 1 1 1 2 0 7 4 2 4 1 4 2 2 1 3 2 0 1 1 3 1 1 0 3 3 6 7 6 5 4 9 6 6 4 4 11 9 8 8 7 6 9 5 4 5 9 12 11 11 11 11 11
4 3 3 5 1 2 4 3 2 3 4 6 2 4 2 4 6 9 2 1 4 5 6 2 6 8 4 1 3 2 3 1 2 2 3 2 0 0 1 3 1 2 3 1 0 3 3 1 3 1 2 0 2 2 2 2 5 1 2 2 1 2 2 4 2 1 2 5 7 6 5 9 9 10 11 4 2 3 3 7 10 10 11 13 13 12 12 12
3 1 1 2 4 3 2 3 3 3 2 5 5 3 3 4 3 5 6 3 0 3 5 7 9 8 1 4 5 3 2 3 3 4 2 4 1 5 4 3 3 2 1 1 1 1 3 1 1 2 2 1 1 1 0 2 2 1 2 3 4 2 2 3 2 5 4 5 2 0 2 7 10 2 2 0 4 7 9 8 7 8 10 11 13 12 12 11
2 1 2 0 0 2 3 3 2 1 3 2 3 3 2 5 4 7 4 2 1 2 4 7 8 2 1 5 4 4 9 6 9 9 5 7 4 3 2 2 7 6 3 2 0 3 2 6 3 2 3 2 2 1 2 3 2 4 7 9 8 4 2 0 1 2 6 3 2 4 7 7 5 2 3 3 6 6 5 8 6 5 9 12 14 13 12 11
Wind_Direction
342 341 338 335 333 332 331 330 328 326 327 327 325 322 319 317 314 311 309 309 310 312 314 315 315 315 315 317 319 325 331 348 338 359 218 240 197 169 181 83 108 150 147 94 60 121 51 5 351 328 105 123 240 130 178 151 146 63 64 114 58 170 119 201 162 190 141 122 147 82 133 114 106 85 130 74 53 75 58 54 53 58 67 104 113 119 127 135
340 336 335 334 332 332 329 328 326 325 326 325 323 321 317 315 313 311 310 309 310 310 313 315 317 315 316 316 321 326 330 308 292 264 230 233 224 194 180 99 118 152 123 52 90 100 95 342 315 26 32 34 300 348 6 281 104 100 127 82 158 205 169 146 178 151 119 127 118 111 115 120 148 130 192 87 181 79 62 49 72 83 88 102 114 124 130 140
336 336 335 332 330 327 326 326 324 325 326 325 322 319 317 313 312 310 310 310 310 312 312 314 316 313 315 316 320 329 331 291 303 279 262 240 233 215 143 124 134 161 169 138 158 131 135 209 42 45 11 30 3 279 25 289 79 210 111 66 251 207 57 124 139 152 133 136 126 124 128 113 162 112 109 132 127 93 125 126 78 106 119 122 127 132 136 142
334 333 332 329 328 326 325 324 324 324 324 323 321 319 315 313 310 310 309 310 311 312 314 313 311 316 311 316 323 327 320 14 265 248 257 244 213 216 145 130 135 132 86 75 160 124 101 77 72 75 30 61 308 10 37 305 57 230 67 158 192 208 111 332 30 131 142 131 135 129 123 110 165 138 99 127 97 334 269 216 149 144 136 135 139 138 141 141
333 332 332 330 325 323 321 324 323 322 323 322 320 317 314 312 311 309 310 310 312 313 314 310 312 311 310 299 348 358 357 47 243 228 255 319 252 200 150 132 134 105 113 144 84 46 78 86 95 37 69 304 341 8 353 327 132 84 90 200 164 141 65 149 129 139 134 128 119 123 116 127 113 52 90 141 135 222 198 167 133 136 142 141 143 145 143 144
335 333 329 327 324 321 320 320 320 321 322 321 318 316 313 312 310 309 309 309 311 311 310 311 308 306 305 334 297 292 109 112 281 290 57 335 256 157 143 132 138 116 94 55 101 52 89 355 64 32 5 59 340 68 301 207 310 92 349 328 186 194 129 202 135 161 131 116 100 88 91 95 61 95 49 90 113 277 129 114 134 134 138 135 137 141 143 148
332 328 325 324 321 319 318 313 315 316 316 318 315 312 310 311 309 306 306 308 307 308 307 306 302 291 308 306 250 341 131 266 308 257 66 49 68 119 134 130 119 90 75 76 34 83 65 61 76 117 91 28 308 26 315 335 12 108 134 134 111 59 130 152 129 80 52 91 98 112 97 90 115 98 10 35 340 88 97 111 117 122 127 135 140 148 150 155
330 327 325 322 320 317 313 313 315 314 316 310 311 307 306 307 308 305 303 304 304 299 303 304 307 292 313 290 125 6 41 252 248 301 100 84 89 112 114 96 104 85 74 134 139 113 106 57 87 130 62 86 270 13 314 69 35 50 56 103 85 68 73 98 75 74 85 73 92 81 78 59 52 169 76 11 56 96 98 110 118 119 123 132 138 145 149 154
330 325 323 320 320 316 315 315 316 314 311 307 303 300 299 304 304 303 301 298 297 295 291 288 297 254 46 347 124 97 260 236 236 160 115 102 106 114 121 103 92 100 132 133 155 159 123 253 68 177 259 61 240 29 345 80 3 54 39 107 98 103 95 97 83 83 93 93 102 94 101 125 159 82 51 359 82 100 110 115 124 123 126 140 149 151 156 162
326 326 323 322 320 318 316 316 316 315 313 307 304 299 299 300 301 297 295 293 290 292 279 290 225 214 335 90 56 122 257 207 41 124 115 118 115 81 59 127 111 116 98 208 86 110 82 200 150 200 125 101 76 59 286 58 136 181 69 44 101 120 106 77 120 123 130 109 340 107 94 69 11 113 54 26 107 114 112 122 132 131 133 142 151 156 160 163
329 327 325 323 321 318 317 317 318 316 312 310 305 300 297 295 289 292 285 280 283 285 220 215 200 164 259 196 119 187 219 64 127 123 124 131 121 109 134 139 140 99 115 90 215 166 154 142 180 95 49 216 117 333 74 143 141 81 108 79 42 61 52 95 90 134 156 67 185 107 80 63 7 60 140 136 124 126 125 130 137 136 135 140 150 156 165 169
331 327 325 325 322 319 319 321 319 317 314 311 309 304 299 294 287 282 276 261 254 220 199 196 171 200 314 68 156 213 64 255 131 121 127 128 132 178 168 165 161 149 131 163 244 227 165 151 117 86 124 172 10 52 47 127 68 149 111 90 57 58 87 48 130 202 222 137 206 53 67 25 11 28 359 125 120 125 126 135 136 135 128 135 144 151 166 175
330 327 327 325 323 321 323 322 321 321 318 313 311 312 306 297 287 277 258 247 225 198 182 171 160 257 279 69 233 236 258 149 125 116 126 65 93 52 155 176 158 152 146 123 78 213 182 132 107 72 207 110 167 53 176 69 39 84 64 115 85 67 84 235 312 264 241 155 67 22 52 288 324 11 49 118 123 117 115 133 136 131 135 136 146 156 164 174
330 328 328 326 325 324 322 323 324 324 320 317 321 318 313 301 285 249 224 209 179 181 171 172 185 264 148 236 276 257 230 135 108 94 144 197 100 59 89 53 53 32 11 75 146 156 155 201 121 145 131 98 93 279 47 357 37 121 203 56 131 122 191 237 190 243 137 193 354 87 127 253 286 32 86 122 135 133 135 140 140 136 138 145 152 165 177 188
328 329 328 327 325 323 323 325 328 325 321 325 324 324 322 323 202 166 170 158 157 167 169 163 214 319 72 270 268 307 141 128 124 219 191 125 119 93 101 101 164 225 199 139 156 193 129 111 107 51 167 299 54 56 15 36 17 84 85 296 350 139 232 257 266 218 150 232 29 81 82 203 246 179 115 117 127 126 126 143 143 145 142 152 162 174 185 191
332 328 327 327 327 324 324 330 330 328 327 327 327 324 344 113 113 130 139 134 141 165 158 308 211 115 97 346 127 81 58 112 281 192 210 114 129 108 162 155 169 44 169 208 190 180 76 87 67 195 173 17 57 92 46 60 19 355 114 214 174 139 195 130 236 212 256 96 358 89 168 123 118 209 107 112 128 126 124 126 142 140 146 153 167 180 188 181
331 328 327 326 326 326 326 330 332 331 331 328 330 335 29 101 114 124 125 123 137 142 215 64 53 179 77 244 28 50 235 247 180 69 146 214 126 149 99 77 28 356 356 19 37 51 357 60 325 29 30 101 130 88 75 22 335 158 10 154 210 159 172 204 270 230 90 82 41 12 112 196 183 119 103 94 132 122 124 138 134 134 140 150 158 173 182 186
330 328 327 324 326 327 326 329 332 334 334 329 332 351 86 111 120 113 105 107 143 210 285 238 232 340 285 328 113 251 184 290 179 161 123 200 113 62 84 61 5 43 37 35 9 88 306 251 36 189 17 5 42 46 115 205 183 203 139 99 248 2 186 169 155 226 122 37 103 67 85 118 124 113 94 106 78 127 137 144 150 142 135 137 140 158 176 186
330 327 325 325 325 326 327 328 332 334 338 320 0 68 69 118 2 291 121 176 156 357 17 2 121 50 178 193 310 295 233 217 108 118 183 106 158 115 64 89 67 47 4 63 260 80 2 63 25 40 213 354 160 147 173 206 157 183 161 167 160 149 211 205 206 28 133 86 89 117 142 142 129 122 105 86 66 123 129 115 119 116 117 119 126 131 166 194
330 326 325 326 327 326 326 327 330 332 343 339 302 46 316 0 2 348 248 30 217 218 236 212 183 297 300 285 261 252 236 93 127 231 100 193 102 66 30 73 20 58 89 166 302 88 98 118 195 194 216 196 214 197 199 189 134 118 113 121 175 168 216 14 14 124 110 90 17 96 120 134 137 144 125 113 95 105 129 139 138 136 136 133 126 124 130 125
326 326 326 327 327 326 325 326 327 329 348 227 158 54 43 322 21 319 314 257 215 231 223 227 191 195 226 290 280 339 96 321 81 272 204 118 97 105 304 44 34 50 278 187 156 314 69 57 267 216 204 167 210 217 174 85 114 166 143 167 184 147 149 265 132 220 360 109 356 108 115 111 136 119 121 116 128 179 164 154 151 151 154 142 133 126 121 122
328 326 329 327 326 326 324 324 325 326 9 143 162 98 181 227 221 216 68 320 316 225 215 238 320 287 304 258 222 137 82 56 299 301 302 136 128 127 290 97 139 183 300 113 20 22 31 189 251 218 192 181 195 204 102 153 130 119 151 149 115 163 119 49 59 12 6 78 157 139 120 111 70 88 104 135 152 229 257 268 180 152 159 148 136 132 126 108
327 327 328 328 326 324 325 319 320 324 212 26 16 53 49 295 344 266 132 208 273 258 180 163 207 245 285 277 255 137 114 154 208 260 198 116 61 182 148 109 95 131 59 88 158 158 336 286 251 195 154 141 217 71 95 85 78 121 109 121 161 180 137 175 271 20 10 119 151 137 107 48 347 62 74 20 145 186 309 84 229 176 156 161 163 158 142 131
326 325 328 328 327 324 320 321 308 301 50 299 196 207 295 309 307 72 73 234 291 308 203 214 164 178 222 140 198 124 150 229 123 216 236 126 150 185 105 147 116 97 187 177 153 161 203 205 150 110 160 156 153 121 122 121 121 18 131 120 134 191 140 140 179 117 67 40 105 92 52 338 327 183 202 334 78 118 91 84 75 46 89 131 132 132 164 150
323 327 327 328 329 323 319 317 7 354 289 171 245 251 280 308 1 153 104 323 349 285 232 307 187 233 226 352 124 133 217 51 218 193 176 133 130 98 221 187 106 236 179 191 112 304 282 265 170 99 112 96 115 130 151 144 118 357 257 164 167 146 103 88 130 110 31 29 252 138 77 281 269 255 219 259 58 154 127 155 216 222 156 144 158 171 180 157
324 325 328 329 327 329 311 341 359 320 341 244 194 246 300 320 55 117 97 79 294 269 347 206 175 209 134 105 112 128 78 233 219 204 159 185 147 140 65 43 123 212 157 143 171 193 216 331 111 152 108 84 112 144 188 128 136 103 205 166 147 137 131 138 136 92 127 163 219 207 137 252 323 247 214 211 198 207 246 199 225 214 219 179 173 180 177 173
324 324 327 329 329 339 356 346 314 301 352 323 274 317 313 323 268 150 13 359 355 240 154 251 76 245 123 185 131 102 84 260 339 73 115 194 170 343 118 250 18 23 147 152 44 275 129 350 65 76 84 102 128 139 202 145 110 120 186 129 127 128 141 161 153 140 181 174 47 66 102 137 288 257 197 186 180 215 235 233 228 221 221 203 191 189 184 184
321 323 325 324 327 337 220 322 338 332 238 232 335 321 320 307 82 54 75 65 281 296 119 261 216 358 118 335 142 150 193 204 112 244 279 207 102 1 82 212 170 185 162 87 184 258 147 137 121 102 88 96 168 214 161 128 115 196 166 142 148 152 163 153 142 121 146 119 162 228 237 63 248 268 286 157 181 235 231 218 218 213 217 213 199 195 195 190
320 321 324 323 322 307 211 194 216 252 239 303 304 326 321 53 94 98 115 116 253 74 264 110 286 50 350 38 186 90 23 3 145 243 309 67 32 141 198 227 159 148 45 137 190 281 282 168 210 141 137 188 240 215 170 123 98 46 122 71 69 59 57 101 119 104 48 84 219 213 194 192 286 288 133 288 222 232 222 212 210 203 207 206 204 196 197 197
318 318 323 325 324 113 157 239 237 239 316 304 298 310 355 57 37 54 4 245 16 317 54 245 54 216 74 135 277 359 248 315 104 353 38 156 297 45 59 138 130 88 206 5 103 216 280 307 148 94 182 206 142 74 146 22 81 132 80 74 45 41 45 47 57 87 57 331 254 220 198 167 267 236 188 164 212 210 191 187 211 202 211 213 209 194 192 194
317 316 320 325 288 273 299 284 255 239 244 284 283 355 76 41 117 103 147 230 348 290 1 5 190 51 118 138 208 299 99 323 1 105 81 16 27 47 49 12 43 57 32 360 310 326 356 30 120 238 108 97 105 87 40 60 77 124 103 111 84 27 15 30 353 30 100 256 260 269 187 147 196 293 240 221 332 163 172 192 193 197 203 204 201 199 195 195
318 315 312 302 225 263 190 223 224 95 315 286 31 59 80 254 15 151 208 325 98 278 154 221 320 141 174 10 110 184 179 19 288 112 155 172 131 153 170 158 176 72 341 331 235 338 70 140 292 324 193 125 68 86 346 26 20 82 86 57 113 230 58 233 16 171 214 194 284 28 137 66 258 227 212 222 231 259 196 194 191 193 194 199 201 198 193 195
318 314 310 280 218 195 243 250 341 320 331 11 66 51 66 99 220 258 272 307 257 183 284 162 196 144 165 108 220 232 6 176 286 312 111 11 136 247 258 180 183 148 202 247 90 72 269 303 350 319 11 184 122 120 172 111 335 121 122 127 88 86 39 228 268 260 309 303 262 341 277 254 245 292 211 211 234 219 219 212 199 189 187 191 195 193 192 196
316 315 312 200 189 216 226 200 234 290 345 44 79 38 58 81 243 226 268 235 203 320 16 84 37 60 137 180 232 151 198 250 142 187 119 134 94 227 265 228 140 69 79 153 155 192 108 331 284 139 205 191 136 154 178 170 141 185 138 133 176 146 154 231 197 208 211 188 250 296 100 225 151 230 173 221 231 229 207 200 189 191 193 191 181 178 189 199
314 301 259 267 245 242 236 227 269 347 65 67 59 95 137 237 231 190 233 303 291 311 158 324 173 127 265 300 306 252 158 226 155 120 160 129 223 171 191 208 230 111 144 131 257 74 170 199 255 238 80 164 150 221 130 102 63 94 161 101 93 225 135 169 207 151 205 160 60 165 206 180 178 234 258 256 244 224 210 187 165 177 171 156 164 184 199 202
316 322 254 254 228 268 183 194 181 214 121 64 83 122 197 193 295 181 79 187 337 8 303 10 69 138 216 282 317 191 326 144 285 115 314 179 193 189 222 185 175 183 142 173 195 155 15 294 278 326 128 97 175 159 291 109 183 241 107 190 217 145 100 95 86 26 81 50 260 215 322 307 298 341 341 5 56 141 169 174 171 174 173 170 184 194 201 200
340 331 14 304 274 212 139 150 159 151 80 93 103 235 209 269 202 169 272 16 278 279 47 83 287 128 193 205 237 263 243 76 286 139 245 293 305 197 211 253 174 172 187 135 284 192 148 234 297 76 133 340 353 153 103 42 134 93 163 219 137 126 124 123 173 346 57 142 261 45 246 305 26 280 311 29 76 159 174 178 174 170 169 183 195 196 200 198
323 316 253 273 296 116 134 157 152 79 86 96 196 229 185 207 223 190 298 348 14 9 69 138 272 140 232 139 219 192 268 151 261 124 219 196 232 210 158 174 203 178 204 220 159 255 117 356 307 285 176 284 354 51 33 19 51 156 194 165 101 231 207 340 90 23 171 266 284 317 285 260 179 252 335 256 191 199 193 182 169 180 186 196 196 202 202 187
253 330 1 28 339 134 134 165 41 81 66 112 240 270 253 242 259 212 232 165 197 74 203 238 147 271 135 129 203 349 152 175 216 180 134 238 184 231 195 176 215 221 194 154 166 176 55 153 288 298 127 261 16 77 173 256 357 44 87 59 68 101 158 134 198 172 117 209 58 289 38 252 207 224 201 226 198 183 177 186 198 193 194 191 195 196 192 184
4 21 317 333 350 99 153 140 58 49 76 177 220 225 231 271 259 274 274 232 299 138 241 185 243 105 50 213 157 141 264 138 155 228 140 235 200 268 213 304 175 134 170 179 136 141 126 103 177 281 293 51 184 191 200 156 124 34 50 341 11 28 209 104 33 75 184 168 178 191 314 278 258 212 186 222 190 186 181 193 198 198 198 198 195 192 187 181
280 110 275 351 4 30 134 39 85 119 178 264 171 235 317 249 323 282 265 210 224 232 203 187 168 200 195 111 286 198 131 128 159 159 197 228 175 249 241 191 188 121 109 58 119 188 97 156 169 272 97 203 230 243 201 179 174 164 157 196 165 124 126 132 259 6 72 104 203 137 237 267 270 189 207 218 194 186 198 189 194 201 198 196 196 194 180 179
12 353 230 39 8 347 125 103 21 204 106 176 228 185 282 289 304 276 306 313 188 266 320 161 215 152 145 198 186 156 131 137 184 145 252 176 245 177 265 49 150 160 133 183 189 218 147 139 100 172 200 188 236 271 265 187 123 161 145 192 144 129 107 98 156 266 22 350 104 154 126 270 241 242 239 242 177 195 195 190 202 202 201 198 196 184 176 180
47 237 267 321 351 78 87 55 304 167 183 233 298 287 234 287 224 250 342 278 293 202 288 183 208 155 248 171 164 142 176 203 163 215 222 201 246 212 217 145 135 89 84 28 56 197 95 79 72 321 309 303 315 300 70 88 111 82 26 89 119 168 181 168 176 177 147 150 17 340 218 250 284 310 285 253 213 201 192 191 198 200 197 193 183 170 170 174
246 276 313 300 352 61 114 201 250 259 278 314 5 265 252 248 204 313 244 273 184 339 198 241 320 191 185 159 123 197 196 134 230 135 320 203 278 206 307 38 166 181 142 211 151 211 139 291 115 87 12 339 345 350 11 333 56 121 175 192 114 93 76 129 108 78 120 216 175 132 236 284 274 325 326 337 167 180 196 207 195 193 188 186 177 170 171 176
278 259 240 297 337 48 165 187 147 176 349 303 312 312 329 324 216 218 205 264 274 221 105 258 213 168 95 129 100 63 33 137 274 250 149 189 256 319 327 43 169 176 238 194 137 132 84 171 112 134 144 163 195 230 250 248 226 223 60 82 189 125 137 120 166 107 190 284 118 160 253 253 275 306 348 315 237 224 231 207 205 196 178 177 171 171 175 176
17 20 305 331 358 11 62 40 74 88 101 10 13 279 251 305 321 292 180 262 229 265 210 260 355 72 47 72 62 48 52 2 81 245 121 212 291 325 251 338 110 181 127 107 88 75 126 116 97 154 159 179 199 210 255 118 73 163 216 135 171 56 85 92 100 106 205 203 183 234 190 291 314 296 279 254 219 218 215 200 199 194 178 169 171 174 175 179
205 66 351 336 333 31 77 13 31 31 40 230 213 302 356 331 285 309 350 275 70 197 300 176 206 144 266 101 171 122 203 194 340 120 343 216 267 249 316 24 15 36 59 90 56 85 78 127 208 141 173 193 169 188 192 163 168 211 139 194 165 147 153 121 156 218 165 102 278 262 200 187 253 265 257 247 236 243 248 232 224 191 183 177 172 165 171 180
49 251 104 191 128 291 17 335 18 339 311 244 220 332 25 359 2 353 317 316 323 328 341 328 43 93 186 185 143 129 285 79 11 161 325 149 328 338 25 359 49 304 2 62 358 117 138 140 208 115 156 238 197 205 64 97 125 172 174 144 165 195 142 171 228 191 143 197 227 251 173 198 250 240 247 228 209 209 212 212 205 183 127 133 153 169 178 182
106 317 227 325 130 271 179 282 318 294 311 12 166 37 9 23 350 324 277 316 350 357 18 272 319 315 305 203 126 160 185 131 295 255 180 223 129 4 67 337 281 13 58 42 26 127 92 44 187 161 126 96 75 276 285 126 61 68 191 193 176 160 201 197 228 185 185 218 225 243 178 229 242 257 250 242 216 217 216 148 136 159 172 168 170 175 179 182
9 25 321 347 25 292 278 311 323 31 77 346 64 348 8 9 346 339 312 281 333 338 3 31 320 325 340 137 112 98 223 157 179 139 208 125 14 130 219 186 188 9 48 81 62 342 101 239 143 152 75 7 314 340 77 128 131 192 274 301 253 161 204 231 239 229 177 303 284 260 234 270 261 230 251 275 234 130 120 180 188 177 166 172 175 180 181 185
308 327 329 359 10 315 328 13 13 45 54 356 50 325 346 358 356 337 284 238 147 15 4 318 298 296 323 95 71 91 48 340 273 274 195 162 181 225 145 264 138 132 29 54 33 342 68 181 51 74 111 299 316 129 318 43 58 97 304 290 275 252 268 213 180 209 144 219 250 30 259 264 267 271 252 317 158 171 191 191 178 182 177 171 179 182 183 186
309 289 354 251 306 349 31 320 333 42 33 342 359 319 335 308 323 325 323 298 299 124 35 324 318 165 347 62 58 7 319 297 277 268 266 240 237 250 239 213 162 153 175 117 284 134 135 134 136 98 115 263 258 32 65 38 10 335 281 247 220 203 200 223 286 186 209 177 177 225 234 225 248 288 190 220 188 203 207 199 189 176 182 180 182 181 182 187